DF2AP-13 Weather Reports


time (UTC)temp
C
wind
direction
speed
KPH
gust
KPH
rain 1hr
cm
rain 24hr
cm
rain mn
cm
humidity
%
barometer
mb
20260507081302 10 0.0 0.0 0.00 0.00 0.00 10 1013.7
20260507075306 9 0.0 0.0 0.00 0.00 0.00 10 1013.5
20260507074302 9 0.0 0.0 0.00 0.00 0.00 10 1013.4
20260507073302 9 0.0 0.0 0.00 0.00 0.00 10 1013.3
20260507072306 9 0.0 0.0 0.00 0.00 0.00 10 1013.2
20260507071302 9 0.0 0.0 0.00 0.00 0.00 10 1013.1
20260507070302 9 0.0 0.0 0.00 0.00 0.00 10 1013.0
20260507065306 9 0.0 0.0 0.00 0.00 0.00 10 1012.9
20260507064306 10 0.0 0.0 0.00 0.00 0.00 10 1012.8
20260507063304 9 0.0 0.0 0.00 0.00 0.00 10 1012.7
20260507062305 9 0.0 0.0 0.00 0.00 0.00 10 1012.6
20260507061302 9 0.0 0.0 0.00 0.00 0.00 10 1012.5
20260507060302 9 0.0 0.0 0.00 0.00 0.00 10 1012.4
20260507054302 9 0.0 0.0 0.00 0.00 0.00 10 1012.2
20260507053302 9 0.0 0.0 0.00 0.00 0.00 10 1012.0
20260507052306 9 0.0 0.0 0.00 0.00 0.00 10 1012.0
20260507051307 10 0.0 0.0 0.00 0.00 0.00 10 1011.9
20260507050308 10 0.0 0.0 0.00 0.00 0.00 10 1011.7
20260507045306 10 0.0 0.0 0.00 0.00 0.00 10 1011.6
20260507044302 10 0.0 0.0 0.00 0.00 0.00 10 1011.4
20260507043302 10 0.0 0.0 0.00 0.00 0.00 10 1011.3
20260507042306 10 0.0 0.0 0.00 0.00 0.00 10 1011.1
20260507041307 10 0.0 0.0 0.00 0.00 0.00 10 1011.1
20260507040302 10 0.0 0.0 0.00 0.00 0.00 10 1010.9
20260507035305 10 0.0 0.0 0.00 0.00 0.00 10 1010.8
20260507034302 10 0.0 0.0 0.00 0.00 0.00 10 1010.6
20260507033302 10 0.0 0.0 0.00 0.00 0.00 10 1010.8
20260507032305 10 0.0 0.0 0.00 0.00 0.00 10 1010.6
20260507031302 10 0.0 0.0 0.00 0.00 0.00 10 1010.6
20260507030302 10 0.0 0.0 0.00 0.00 0.00 10 1010.5
20260507025305 10 0.0 0.0 0.00 0.00 0.00 10 1010.5
20260507024303 10 0.0 0.0 0.00 0.00 0.00 10 1010.5
20260507023307 10 0.0 0.0 0.00 0.00 0.00 10 1010.4
20260507021304 10 0.0 0.0 0.00 0.00 0.00 10 1010.3
20260507020302 10 0.0 0.0 0.00 0.00 0.00 10 1010.2
20260507015306 10 0.0 0.0 0.00 0.00 0.00 10 1010.0
20260507014303 10 0.0 0.0 0.00 0.00 0.00 10 1010.0
20260507013307 10 0.0 0.0 0.00 0.00 0.00 10 1009.9
20260507012306 10 0.0 0.0 0.00 0.00 0.00 10 1009.8
20260507011302 11 0.0 0.0 0.00 0.00 0.00 10 1009.8
20260507010302 11 0.0 0.0 0.00 0.00 0.00 10 1009.8
20260507005305 11 0.0 0.0 0.00 0.00 0.00 10 1009.8
20260507004303 11 0.0 0.0 0.00 0.00 0.00 10 1009.6
20260507003305 11 0.0 0.0 0.00 0.00 0.00 10 1009.5
20260507002305 11 0.0 0.0 0.00 0.00 0.00 10 1009.4
20260507001302 11 0.0 0.0 0.00 0.00 0.00 10 1009.4
20260507000302 11 0.0 0.0 0.00 0.00 0.00 10 1009.5
20260506235306 11 0.0 0.0 0.00 0.00 0.00 10 1009.5
20260506234307 12 0.0 0.0 0.00 0.00 0.00 10 1009.4
20260506233302 12 0.0 0.0 0.00 0.00 0.00 10 1009.3
20260506232306 12 0.0 0.0 0.00 0.00 0.00 10 1009.2
20260506231302 12 0.0 0.0 0.00 0.00 0.00 10 1009.3
20260506230302 12 0.0 0.0 0.00 0.00 0.00 10 1009.2
20260506225307 12 0.0 0.0 0.00 0.00 0.00 10 1009.0
20260506224302 12 0.0 0.0 0.00 0.00 0.00 10 1009.1
20260506223302 12 0.0 0.0 0.00 0.00 0.00 10 1009.1
20260506222305 12 0.0 0.0 0.00 0.00 0.00 10 1009.1
20260506221302 12 0.0 0.0 0.00 0.00 0.00 10 1009.0
20260506220302 12 0.0 0.0 0.00 0.00 0.00 10 1008.9
20260506215305 12 0.0 0.0 0.00 0.00 0.00 10 1009.0
20260506214302 12 0.0 0.0 0.00 0.00 0.00 10 1008.9
20260506213302 12 0.0 0.0 0.00 0.00 0.00 10 1008.9
20260506212305 12 0.0 0.0 0.00 0.00 0.00 10 1009.0
20260506211302 12 0.0 0.0 0.00 0.00 0.00 10 1009.0
20260506210302 12 0.0 0.0 0.00 0.00 0.00 10 1008.8
20260506205305 12 0.0 0.0 0.00 0.00 0.00 10 1008.7
20260506203303 12 0.0 0.0 0.00 0.00 0.00 10 1008.8
20260506202305 12 0.0 0.0 0.00 0.00 0.00 10 1008.8
20260506201302 12 0.0 0.0 0.00 0.00 0.00 10 1008.7
20260506200302 12 0.0 0.0 0.00 0.00 0.00 10 1008.5
20260506195305 12 0.0 0.0 0.00 0.00 0.00 10 1008.3
20260506194302 12 0.0 0.0 0.00 0.00 0.00 10 1008.3
20260506193302 12 0.0 0.0 0.00 0.00 0.00 10 1008.0
20260506192305 12 0.0 0.0 0.00 0.00 0.00 10 1008.1
20260506191303 12 0.0 0.0 0.00 0.00 0.00 99 1007.8
20260506190302 12 0.0 0.0 0.00 0.00 0.00 96 1007.7
20260506185307 13 0.0 0.0 0.00 0.00 0.00 98 1007.4
20260506184302 13 0.0 0.0 0.00 0.00 0.00 99 1007.4
20260506183302 13 0.0 0.0 0.00 0.00 0.00 10 1007.1
20260506182308 12 0.0 0.0 0.00 0.00 0.00 99 1006.9
20260506181302 13 0.0 0.0 0.00 0.00 0.00 97 1006.6
20260506180302 13 0.0 0.0 0.00 0.00 0.00 95 1006.5
20260506175305 13 0.0 0.0 0.00 0.00 0.00 96 1006.3
20260506174302 13 0.0 0.0 0.00 0.00 0.00 93 1006.2
20260506173307 13 0.0 0.0 0.00 0.00 0.00 90 1006.1
20260506172306 13 0.0 0.0 0.00 0.00 0.00 84 1006.3
20260506171307 14 0.0 0.0 0.00 0.00 0.00 84 1006.4
20260506170302 14 0.0 0.0 0.00 0.00 0.00 86 1006.4
20260506165305 15 0.0 0.0 0.00 0.00 0.00 87 1006.3
20260506164303 15 0.0 0.0 0.00 0.00 0.00 89 1006.1
20260506163307 15 0.0 0.0 0.00 0.00 0.00 86 1006.2
20260506162307 15 0.0 0.0 0.00 0.00 0.00 77 1005.9
20260506161304 17 0.0 0.0 0.00 0.00 0.00 71 1005.7
20260506160302 18 0.0 0.0 0.00 0.00 0.00 57 1005.3
20260506155305 19 0.0 0.0 0.00 0.00 0.00 56 1005.1
20260506154302 19 0.0 0.0 0.00 0.00 0.00 52 1005.1
20260506153302 20 0.0 0.0 0.00 0.00 0.00 52 1005.0
20260506152305 20 0.0 0.0 0.00 0.00 0.00 50 1005.0
20260506151307 20 0.0 0.0 0.00 0.00 0.00 53 1005.1
20260506150304 19 0.0 0.0 0.00 0.00 0.00 54 1005.4
20260506145305 19 0.0 0.0 0.00 0.00 0.00 57 1005.4
20260506144302 19 0.0 0.0 0.00 0.00 0.00 56 1005.5
20260506143302 20 0.0 0.0 0.00 0.00 0.00 55 1005.3
20260506142305 20 0.0 0.0 0.00 0.00 0.00 51 1005.3
20260506141306 20 0.0 0.0 0.00 0.00 0.00 54 1005.4
20260506140304 20 0.0 0.0 0.00 0.00 0.00 53 1005.5
20260506135305 20 0.0 0.0 0.00 0.00 0.00 53 1005.3
20260506134302 20 0.0 0.0 0.00 0.00 0.00 55 1005.5
20260506133302 19 0.0 0.0 0.00 0.00 0.00 57 1005.6
20260506132305 20 0.0 0.0 0.00 0.00 0.00 55 1005.6
20260506131302 18 0.0 0.0 0.00 0.00 0.00 59 1005.7
20260506130302 19 0.0 0.0 0.00 0.00 0.00 58 1005.8
20260506125305 20 0.0 0.0 0.00 0.00 0.00 56 1005.6
20260506124307 20 0.0 0.0 0.00 0.00 0.00 53 1005.7
20260506123302 20 0.0 0.0 0.00 0.00 0.00 54 1005.6
20260506122305 20 0.0 0.0 0.00 0.00 0.00 53 1005.8
20260506121302 19 0.0 0.0 0.00 0.00 0.00 54 1005.8
20260506120303 18 0.0 0.0 0.00 0.00 0.00 58 1005.8
20260506115306 18 0.0 0.0 0.00 0.00 0.00 61 1006.0
20260506114303 18 0.0 0.0 0.00 0.00 0.00 57 1005.9
20260506113302 18 0.0 0.0 0.00 0.00 0.00 58 1005.9
20260506112305 18 0.0 0.0 0.00 0.00 0.00 60 1005.9
20260506111302 18 0.0 0.0 0.00 0.00 0.00 60 1006.0
20260506110302 18 0.0 0.0 0.00 0.00 0.00 59 1006.0
20260506105307 18 0.0 0.0 0.00 0.00 0.00 61 1006.2
20260506104312 18 0.0 0.0 0.00 0.00 0.00 59 1006.2
20260506103302 17 0.0 0.0 0.00 0.00 0.00 67 1006.5
20260506102305 17 0.0 0.0 0.00 0.00 0.00 67 1006.7
20260506101302 17 0.0 0.0 0.00 0.00 0.00 68 1006.6
20260506100302 17 0.0 0.0 0.00 0.00 0.00 65 1006.5
20260506095313 17 0.0 0.0 0.00 0.00 0.00 66 1006.4
20260506094302 16 0.0 0.0 0.00 0.00 0.00 68 1006.4
20260506093302 16 0.0 0.0 0.00 0.00 0.00 68 1006.3
20260506092305 17 0.0 0.0 0.00 0.00 0.00 71 1006.3
20260506091302 17 0.0 0.0 0.00 0.00 0.00 70 1006.2
20260506090302 16 0.0 0.0 0.00 0.00 0.00 71 1006.2
20260506085305 16 0.0 0.0 0.00 0.00 0.00 76 1006.1
20260506084302 16 0.0 0.0 0.00 0.00 0.00 75 1006.1
20260506083312 16 0.0 0.0 0.00 0.00 0.00 74 1006.0
20260506082304 16 0.0 0.0 0.00 0.00 0.00 78 1006.0